Wind_Speed
49 50 49 49 50 50 48 48 46 45 45 45 44 42 43 43 44 43 44 44 46 47 47 47 50 53 54 55 57 54 59 61 57 59 59 60 61 64
48 49 49 49 48 48 48 46 44 43 44 44 44 43 44 44 42 42 43 44 47 46 46 51 50 53 57 57 56 61 62 64 65 66 63 63 63 63
47 47 48 49 48 47 47 46 45 44 44 44 44 44 44 45 45 44 44 45 50 49 50 51 51 57 61 61 63 65 61 63 60 60 57 52 51 50
46 46 46 47 46 45 45 45 45 44 44 45 45 45 44 44 46 49 48 49 50 51 51 51 51 51 51 52 52 53 51 51 47 45 48 48 48 45
44 43 44 44 43 43 43 43 44 45 44 44 44 44 44 45 47 48 47 50 50 51 47 46 47 43 46 46 46 44 43 40 41 43 43 38 37 41
41 40 41 41 42 43 44 44 44 44 43 42 42 44 43 45 45 46 46 45 49 45 50 47 44 40 40 41 42 42 41 41 40 36 34 37 41 46
39 38 40 41 41 43 43 42 41 42 41 41 41 44 44 45 47 46 45 47 44 43 43 44 43 42 40 44 45 41 39 36 31 32 37 41 45 52
37 37 38 39 38 36 36 38 39 40 41 41 43 44 45 45 44 43 41 41 43 41 44 48 49 49 49 49 44 40 34 28 32 37 41 46 53 58
34 32 30 29 29 31 34 36 38 40 42 43 43 42 42 41 42 42 42 44 47 50 47 45 43 44 40 44 38 27 28 33 38 40 46 51 56 61
27 27 29 30 31 32 33 35 36 37 37 36 35 33 35 42 45 45 40 41 40 43 42 41 40 36 32 31 24 27 33 36 39 45 49 54 59 64
28 29 29 30 29 28 26 26 28 26 23 23 31 34 33 32 34 37 38 39 38 39 32 31 32 28 19 22 27 31 35 39 43 48 53 58 61 64
29 28 28 25 23 20 18 22 24 27 23 22 23 24 24 28 30 31 31 28 27 27 28 25 17 17 23 27 30 34 38 43 47 52 56 61 63 64
29 28 25 24 24 21 18 17 20 22 24 24 24 26 29 29 23 21 19 21 24 20 16 13 17 21 25 29 34 37 41 46 50 55 60 62 64 66
27 28 25 25 20 19 19 19 19 21 24 24 27 29 25 19 18 19 19 15 14 12 13 17 20 24 28 32 36 40 44 47 52 56 59 62 65 66
29 27 25 24 24 23 23 23 24 23 20 19 17 16 16 17 16 13 12 12 10 13 17 20 24 28 31 34 36 40 43 49 54 57 58 62 65 57
25 25 26 26 24 24 24 22 18 14 13 14 14 14 14 13 12 12 10 10 14 18 20 24 29 32 35 37 39 43 46 49 56 58 60 65 63 48
26 25 26 24 20 18 16 16 16 15 15 14 13 12 12 13 12 11 13 16 17 20 23 28 32 34 37 39 42 45 48 53 57 57 60 63 55 43
21 19 19 19 18 16 15 15 15 14 14 13 13 13 14 13 13 15 16 18 20 23 27 32 34 37 40 43 46 47 50 52 56 57 59 56 47 47
19 19 18 17 15 14 14 13 13 13 13 14 15 16 14 13 15 16 18 20 24 28 32 34 36 39 42 45 48 46 48 51 53 56 56 51 44 48
16 15 14 14 14 14 13 12 12 12 13 17 19 17 15 15 17 18 21 24 27 31 32 35 39 41 43 45 46 49 48 50 50 52 46 41 44 45
15 15 13 12 11 11 12 13 13 13 13 17 20 18 17 19 21 22 25 28 31 32 35 39 41 43 45 46 47 50 53 53 49 49 42 36 42 38
17 16 14 14 13 13 14 15 15 14 14 16 20 20 20 22 24 26 27 30 32 35 39 41 44 46 45 46 49 51 53 53 52 47 40 31 35 23
16 15 14 15 15 15 15 16 16 15 15 16 17 18 20 22 23 26 29 31 35 38 41 44 46 46 47 49 51 53 51 49 48 45 38 31 31 14
Wind_Direction
240 243 244 243 244 246 246 248 247 248 250 252 255 254 257 259 262 268 271 273 273 276 276 278 283 281 281 282 285 280 289 284 282 282 282 283 289 289
239 241 243 245 245 244 245 247 248 250 251 254 257 260 261 262 265 270 274 271 275 278 277 280 281 281 279 279 280 285 285 279 283 284 289 290 292 292
239 240 242 244 245 246 247 248 250 253 255 256 259 262 264 264 264 270 273 270 275 280 281 282 283 279 281 284 289 288 289 284 286 288 290 292 292 291
240 241 242 243 244 247 248 251 254 256 257 259 260 261 262 264 267 268 271 272 276 279 281 284 285 285 287 288 289 289 286 290 289 289 291 293 293 292
240 241 241 241 243 247 250 252 256 259 258 257 258 260 262 263 265 267 269 271 275 277 281 283 286 287 290 289 287 284 289 285 291 291 291 292 290 292
238 239 240 242 245 248 252 254 254 254 255 256 258 261 264 265 265 266 267 271 275 275 279 279 282 286 286 291 294 291 288 290 292 291 289 291 297 299
237 241 243 246 248 252 253 254 252 251 252 255 258 260 262 264 263 267 266 267 273 278 275 280 282 286 288 298 295 291 290 292 288 289 294 297 299 300
237 240 243 248 251 251 250 249 251 253 255 257 258 259 260 261 264 265 264 268 272 273 287 280 280 281 283 293 291 288 287 285 290 294 296 298 301 303
237 240 239 238 242 249 252 254 255 257 259 260 260 260 260 261 258 268 262 267 273 280 284 282 281 279 280 290 285 279 286 291 296 298 299 302 305 306
228 231 233 241 249 255 258 258 259 260 260 259 258 263 262 256 261 265 272 275 277 280 282 281 284 275 281 276 277 290 293 298 300 301 305 309 310 309
230 232 237 246 254 257 261 258 255 252 254 259 260 263 264 263 267 270 272 272 273 279 281 279 275 275 270 282 290 295 299 300 303 307 311 313 313 311
228 233 242 238 244 241 250 252 256 254 254 261 261 253 250 265 273 273 272 273 275 275 274 264 263 286 291 297 301 301 301 302 308 313 315 316 313 311
233 235 225 230 232 232 243 254 262 253 248 256 259 260 262 274 269 270 272 271 272 265 253 271 288 294 299 302 305 305 306 311 314 318 317 316 315 314
235 220 220 222 227 231 242 246 252 253 254 258 262 268 267 261 264 266 264 257 246 252 276 288 294 301 304 305 306 310 313 315 318 320 319 318 319 317
214 217 222 230 237 237 243 248 267 259 257 262 257 247 252 262 259 250 235 233 258 279 286 294 301 303 306 308 312 314 316 319 321 321 319 321 323 319
214 221 227 232 236 245 252 251 240 237 251 255 254 254 252 245 229 227 237 263 276 285 294 301 305 307 308 311 314 316 317 319 322 323 325 326 325 320
223 233 237 243 235 223 219 228 235 247 252 251 247 242 229 222 225 241 256 272 287 298 303 306 307 309 311 313 317 318 318 323 325 327 330 328 324 323
223 212 205 205 211 219 227 233 240 241 237 232 231 220 221 229 244 258 271 283 294 298 303 309 309 310 312 314 318 322 324 326 327 331 332 329 324 326
199 204 205 208 217 222 225 225 221 218 223 228 218 220 230 248 259 270 282 293 297 302 308 310 312 314 316 317 318 323 326 328 330 331 332 329 326 329
198 199 200 205 209 214 215 213 214 222 228 224 227 231 245 261 271 281 289 296 301 306 308 310 313 314 317 318 320 324 327 330 332 330 327 324 326 333
191 192 198 205 211 219 225 225 222 224 234 237 237 242 255 267 276 283 291 297 303 307 309 312 313 315 317 318 320 323 324 328 333 329 326 324 328 328
210 210 211 214 218 222 225 228 227 230 242 249 250 255 264 274 282 288 294 300 305 307 311 312 314 316 317 319 321 323 325 327 331 329 326 323 326 307
212 216 224 231 230 227 225 228 232 237 246 255 262 270 276 282 287 293 298 303 306 309 312 313 315 316 318 320 320 321 323 323 324 326 325 323 328 281
Height
5645 5649 5654 5656 5659 5662 5664 5665 5668 5670 5672 5674 5675 5676 5676 5675 5675 5674 5674 5673 5671 5670 5670 5668 5667 5665 5663 5662 5660 5657 5654 5651 5648 5646 5641 5637 5633 5628
5633 5637 5642 5645 5648 5651 5653 5655 5657 5659 5661 5663 5664 5664 5664 5665 5664 5663 5662 5662 5661 5660 5659 5658 5656 5654 5651 5650 5648 5645 5641 5638 5634 5630 5626 5622 5618 5613
5620 5625 5629 5632 5636 5640 5643 5645 5647 5649 5651 5652 5653 5653 5653 5653 5653 5653 5652 5652 5650 5649 5648 5647 5645 5644 5642 5638 5634 5630 5627 5624 5620 5617 5612 5608 5604 5599
5608 5612 5618 5621 5625 5628 5631 5634 5637 5638 5640 5641 5641 5642 5643 5643 5642 5643 5642 5641 5640 5639 5637 5636 5634 5631 5628 5625 5621 5617 5615 5611 5607 5603 5601 5596 5592 5588
5597 5601 5605 5610 5614 5618 5621 5623 5625 5627 5628 5629 5630 5631 5632 5632 5632 5632 5632 5630 5630 5629 5627 5626 5623 5620 5617 5614 5610 5606 5603 5600 5597 5593 5589 5584 5581 5576
5587 5591 5595 5600 5604 5607 5610 5612 5613 5615 5617 5618 5619 5619 5620 5620 5620 5620 5621 5621 5620 5618 5617 5616 5613 5611 5608 5604 5601 5597 5593 5589 5586 5582 5579 5576 5571 5565
5577 5582 5586 5590 5593 5596 5598 5600 5602 5604 5606 5607 5608 5608 5609 5609 5609 5609 5610 5610 5609 5608 5607 5605 5604 5602 5599 5596 5591 5587 5583 5580 5577 5574 5570 5565 5560 5553
5568 5572 5576 5580 5582 5585 5588 5590 5592 5594 5595 5596 5597 5597 5597 5598 5598 5599 5599 5599 5599 5598 5597 5594 5592 5591 5589 5586 5582 5579 5576 5573 5569 5565 5560 5555 5548 5539
5560 5564 5567 5571 5574 5577 5579 5580 5581 5583 5584 5585 5586 5586 5587 5587 5588 5589 5589 5589 5589 5588 5586 5583 5581 5580 5578 5576 5574 5571 5568 5565 5560 5555 5550 5543 5534 5523
5552 5556 5560 5564 5566 5569 5570 5570 5571 5572 5574 5575 5576 5576 5577 5578 5578 5579 5579 5579 5578 5577 5575 5573 5572 5570 5569 5568 5566 5563 5560 5555 5550 5545 5538 5530 5520 5508
5546 5550 5553 5556 5558 5560 5561 5562 5563 5564 5565 5566 5567 5568 5569 5570 5570 5570 5569 5568 5568 5568 5566 5565 5564 5563 5562 5561 5559 5555 5550 5546 5540 5533 5525 5515 5505 5493
5540 5543 5546 5549 5551 5553 5554 5555 5556 5557 5559 5560 5560 5560 5562 5562 5562 5561 5560 5560 5560 5560 5560 5559 5558 5557 5556 5553 5550 5546 5541 5536 5528 5520 5510 5501 5490 5480
5533 5536 5539 5542 5545 5547 5547 5548 5550 5551 5552 5553 5553 5555 5555 5555 5554 5554 5554 5554 5554 5554 5554 5554 5553 5551 5549 5545 5541 5537 5531 5524 5515 5507 5497 5486 5475 5463
5526 5529 5533 5536 5539 5540 5542 5544 5544 5545 5545 5546 5547 5548 5548 5548 5549 5549 5549 5549 5550 5550 5550 5549 5547 5545 5542 5538 5533 5527 5519 5512 5505 5496 5485 5473 5459 5445
5520 5524 5528 5531 5533 5535 5536 5537 5538 5539 5539 5540 5540 5542 5543 5543 5543 5544 5545 5546 5546 5546 5545 5543 5541 5538 5535 5531 5525 5518 5510 5501 5493 5484 5473 5461 5448 5433
5516 5519 5522 5525 5527 5528 5530 5531 5533 5534 5535 5536 5537 5537 5538 5538 5540 5541 5542 5542 5542 5541 5539 5537 5534 5530 5526 5521 5515 5508 5501 5493 5483 5471 5458 5445 5434 5422
5511 5514 5517 5519 5521 5523 5525 5527 5529 5530 5531 5532 5533 5534 5535 5536 5537 5538 5538 5538 5537 5535 5533 5530 5526 5522 5517 5512 5505 5498 5490 5480 5470 5461 5447 5431 5420 5414
5507 5509 5512 5515 5518 5520 5521 5523 5524 5525 5527 5528 5529 5531 5532 5533 5534 5534 5534 5533 5531 5529 5526 5522 5517 5513 5507 5501 5496 5487 5478 5469 5458 5447 5436 5424 5412 5403
5505 5508 5510 5512 5514 5516 5518 5520 5521 5522 5524 5525 5527 5528 5529 5530 5530 5529 5528 5527 5525 5522 5518 5513 5509 5503 5497 5491 5485 5480 5470 5459 5448 5436 5425 5414 5406 5397
5502 5505 5508 5510 5512 5514 5516 5517 5518 5519 5521 5523 5524 5525 5525 5525 5525 5524 5523 5520 5518 5514 5510 5506 5501 5495 5489 5483 5473 5466 5460 5451 5439 5427 5416 5405 5398 5391
5501 5504 5506 5508 5510 5511 5513 5514 5515 5517 5518 5519 5520 5520 5520 5520 5519 5518 5516 5513 5510 5507 5502 5498 5492 5485 5479 5472 5465 5456 5448 5443 5433 5422 5412 5403 5394 5385
5499 5502 5504 5506 5507 5509 5510 5511 5512 5513 5514 5514 5515 5515 5515 5514 5513 5511 5509 5506 5502 5498 5494 5489 5483 5476 5470 5463 5455 5447 5438 5429 5424 5415 5405 5399 5391 5384
5496 5499 5501 5503 5504 5505 5506 5507 5508 5509 5510 5510 5510 5510 5509 5508 5507 5504 5501 5498 5494 5490 5485 5479 5473 5467 5460 5453 5446 5437 5429 5420 5410 5403 5397 5391 5383 5378